Location: *
(44.3925°N, 5.4708°E)
Time: 05:03:38
(UTC+00:00)

CSL-04 Rocket - Pass Details

Date: 18 September 2019
Orbit: 806 x 860 km, 99.0° (Epoch: 16 October)

Event Time Altitude Azimuth Distance (km) Brightness Sun altitude
Rises 18:03:38 0° 166° (SSE) 3,386 6.6 -4.3°
Reaches altitude 10° 18:05:58 10° 167° (SSE) 2,462 5.9 -4.8°
Maximum altitude 18:11:27 82° 255° (WSW) 867 3.9 -5.7°
Drops below altitude 10° 18:17:02 10° 344° (NNW) 2,503 6.5 -6.7°
Sets 18:19:26 0° 345° (NNW) 3,446 7.2 -7.1°
